sat.trackr.live / text

‹ back to catalog

STARLINK-11273 [DTC]

NORAD 60913 · 2024-154L

PAYLOAD ACTIVE UNKNOWN

§ Identity

Operator
Country
US
Launch date
2024-08-31
Launch site
AFETR
Launch vehicle
Mass (kg)
RCS (m²)

Purposes: comms

External: N2YO · Heavens-Above · Gunter

§ Orbital elements

Epoch: 2026-05-25T04:59:23.914752Z

Period
91.74 min
Inclination
53.1592°
Eccentricity
0.0001046
Mean motion
15.69713600 rev/d
Perigee alt
359.0 km
Apogee alt
360.4 km
Semi-major
6,737.9 km
B*
-3.8844e-6
RAAN
113.9674°
Arg perigee
91.0324°
Mean anomaly
269.0814°
Rev number
10,052

§ Raw data

STARLINK-11273 [DTC]1 60913U 24154L   26145.20791568 -.00001059  00000+0 -38844-5 0  99992 60913  53.1592 113.9674 0001046  91.0324 269.0814 15.69713600100523

JSON: /api/v1/satellites/60913 · /tle

For live sub-satellite position, see the globe view (requires WebGL).

§ Visibility from observer

Set your observer location to see the next 7 days of passes ≥ 10°. The values pass through the URL so the page stays shareable.

No JS? Fill the form by hand. The geolocation button needs JavaScript.